Location: Montreal
(45.5087°N, 73.5540°W)
Time: 13:05:28
(UTC-04:00)

Envisat - Visible Passes

Search period start: 18 April 2024 00:00
Search period end: 28 April 2024 00:00
Orbit: 762 x 764 km, 98.3° (Epoch: 17 April)

Date Brightness Start Highest point End Pass type
(mag) Time Alt. Az. Time Alt. Az. Time Alt. Az.
18 Apr 5.5 02:57:30 10° NE 03:00:14 14° E 03:02:58 10° ESE visible
18 Apr 2.9 04:34:42 10° N 04:39:46 75° WNW 04:44:23 13° SSW visible
19 Apr 3.7 03:57:27 10° NNE 04:02:25 51° E 04:06:43 13° S visible
20 Apr 4.9 03:20:46 10° NE 03:24:51 24° E 03:28:55 10° SSE visible
20 Apr 3.4 04:59:11 10° N 05:04:02 46° WNW 05:08:50 10° SW visible
21 Apr 5.7 02:45:51 10° ENE 02:47:04 11° E 02:48:16 10° E visible
21 Apr 3.0 04:21:41 10° NNE 04:26:48 85° ESE 04:31:33 12° SSW visible
22 Apr 4.2 03:44:36 10° NNE 03:49:22 39° E 03:53:53 11° SSE visible
23 Apr 5.3 03:08:12 10° NE 03:11:43 19° E 03:15:12 10° SE visible
23 Apr 3.1 04:46:05 10° N 04:51:05 59° WNW 04:56:03 10° SSW visible
24 Apr 3.3 04:08:42 10° NNE 04:13:46 65° ESE 04:18:41 11° S visible
25 Apr 4.6 03:31:47 10° NNE 03:36:15 30° E 03:40:42 10° SSE visible
25 Apr 3.7 05:10:38 10° N 05:15:16 37° WNW 05:19:53 10° SW visible
26 Apr 5.5 02:55:53 10° ENE 02:58:32 14° E 03:01:12 10° ESE visible
26 Apr 3.0 04:33:00 10° N 04:38:06 77° WNW 04:43:09 10° SSW visible
27 Apr 3.8 03:55:46 10° NNE 04:00:43 50° E 04:05:38 10° S visible
